Tracking 20232 objects as of 19-Jan-2020
HD Live streaming from Space Station
objects crossing your sky now

METEOR 2-1

Track METEOR 2-1 now!
10-day predictions
METEOR 2-1 is classified as:


NORAD ID: 8026
Int'l Code: 1975-064A
Perigee: 849.2 km
Apogee: 881.7 km
Inclination: 81.3 °
Period: 102.1 minutes
Semi major axis: 7236 km
RCS: 5.6919 m2 (large)
Launch date: July 11, 1975
Source: Commonwealth of Independent States (former USSR) (CIS)
Launch site: PLESETSK MISSILE AND SPACE COMPLEX (PKMTR)
aabbcc
Your satellite tracking list
Your tracking list is empty




NASA's NSSDC Master Catalog

Two Line Element Set (TLE):
1  8026U 75064A   20018.78779626  .00000100  00000-0  49311-4 0  9994
2  8026  81.2794 134.8776 0022461  19.5827 340.6202 14.10306621289541
Source of the keplerian elements: AFSPC